This is the latest recevied weather packets stored in our database for station/object N5DGC. If no packets are shown the sender has not sent any weather packets the latest 10 day(s).
| Time | Temp. | Humidity | Pressure | Rain* | Wind** | Luminosity | Snow |
|---|---|---|---|---|---|---|---|
| 1777763200 | 21.67° C | 24% | 1239.1 hPa | 0 mm | - | 464 W/m² | - |
| 1777762898 | 21.67° C | 24% | 1239.3 hPa | 0 mm | - | 491 W/m² | - |
| 1777762593 | 22.22° C | 24% | 1239 hPa | 0 mm | - | 517 W/m² | - |
| 1777762291 | 22.22° C | 23% | 1239.1 hPa | 0 mm | - | 536 W/m² | - |
| 1777761986 | 22.22° C | 22% | 1239.3 hPa | 0 mm | - | 557 W/m² | - |
| 1777761683 | 22.22° C | 23% | 1239.3 hPa | 0 mm | - | 572 W/m² | - |
| 1777761381 | 21.67° C | 23% | 1239.3 hPa | 0 mm | - | 592 W/m² | - |
| 1777761079 | 21.67° C | 23% | 1239.4 hPa | 0 mm | - | 606 W/m² | - |
| 1777760777 | 21.11° C | 23% | 1239.4 hPa | 0 mm | - | 624 W/m² | - |
| 1777760472 | 21.11° C | 23% | 1239.5 hPa | 0 mm | - | 642 W/m² | - |
| 1777760168 | 21.67° C | 24% | 1239.4 hPa | 0 mm | - | 655 W/m² | - |
| 1777759866 | 21.11° C | 24% | 1239.4 hPa | 0 mm | - | 667 W/m² | - |
| 1777759562 | 21.11° C | 23% | 1239.7 hPa | 0 mm | - | 684 W/m² | - |
| 1777759258 | 21.11° C | 24% | 1239.6 hPa | 0 mm | - | 699 W/m² | - |
| 1777758955 | 21.67° C | 23% | 1239.7 hPa | 0 mm | - | 719 W/m² | - |
| 1777758652 | 22.22° C | 24% | 1239.8 hPa | 0 mm | - | 724 W/m² | - |
| 1777758349 | 21.67° C | 23% | 1240 hPa | 0 mm | - | 742 W/m² | - |
| 1777758047 | 21.67° C | 23% | 1240.2 hPa | 0 mm | - | 758 W/m² | - |
| 1777757743 | 21.11° C | 25% | 1240.3 hPa | 0 mm | - | 765 W/m² | - |
| 1777757441 | 21.11° C | 24% | 1240.3 hPa | 0 mm | - | 780 W/m² | - |
| 1777757140 | 20° C | 25% | 1240.5 hPa | 0 mm | - | 799 W/m² | - |
| 1777756837 | 20° C | 25% | 1240.7 hPa | 0 mm | - | 805 W/m² | - |
| 1777756532 | 21.11° C | 24% | 1240.9 hPa | 0 mm | - | 824 W/m² | - |
| 1777756230 | 21.67° C | 25% | 1240.9 hPa | 0 mm | - | 846 W/m² | - |
| 1777755927 | 21.67° C | 25% | 1240.9 hPa | 0 mm | - | 863 W/m² | - |
* Rain latest hour (hover to see other rain measurements)
** Current wind speed in m/s (hover to see current wind gust speed)